Flag for U.S.A. Weather past 2 weeks in Hollywood, Florida, U.S.A.

Now
86 °F

Partly sunny.


Feels Like: 98 °F
Forecast: 80 / 88 °F
Wind: 15 mph from East

Location: Fort Lauderdale / Hollywood International Airport

Current Time: Aug 29, 2015 at 7:43:50 PM

Latest Report: Aug 29, 2015 at 6:53 PM


Visibility: 10 mi

Pressure: 29.94 "Hg

Humidity: 77%

Dew point: 78 °F

Location of HollywoodLocation

Historic Weather in Hollywood — Graph

°F

Hollywood temperature yesterday

Maximum temperature yesterday: 90 °F (at 12:53 PM)
Minimum temperature yesterday: 80 °F (at 10:53 PM)
Average temperature yesterday: 84 °F

Past Weeks' High & Low Weather Summary

 TemperatureHumidityPressure
High92 °F (Aug 23, 12:53 PM)100% (Aug 16, 3:56 AM)30.09 "Hg (Aug 16, 3:56 AM)
Low76 °F (Aug 16, 5:53 AM)57% (Aug 21, 11:53 AM)29.87 "Hg (Aug 24, 5:53 PM)
Average84 °F77%29.98 "Hg
* Reported Aug 14 6:53 PM — Aug 29 6:53 PM, Hollywood, Weather by CustomWeather, © 2015

Note: Actual official high and low records may vary slightly from our data, if they occured in-between our weather recording intervals... More about our weather records

Advertising

Hollywood weather history for previous 24 hours

 ConditionsComfort  
Time TempWeatherWind HumidityBarometerVisibility
6:53 PM
Sat, Aug 29
86 °FPartly sunny.15 mph77%29.94 "Hg10 mi
5:53 PM87 °FPartly sunny.20 mph72%29.95 "Hg10 mi
4:53 PM86 °FBroken clouds.14 mph80%29.96 "Hg10 mi
3:53 PM86 °FBroken clouds.14 mph80%29.98 "Hg10 mi
2:53 PM81 °FRain. Fog.14 mph82%30.00 "Hg5 mi
1:53 PM86 °FBroken clouds.20 mph83%30.00 "Hg10 mi
12:53 PM91 °FPartly sunny.17 mph68%30.02 "Hg10 mi
11:53 AM89 °FBroken clouds.16 mph72%30.03 "Hg10 mi
10:53 AM88 °FBroken clouds.18 mph75%30.03 "Hg10 mi
9:53 AM87 °FPartly sunny.16 mph77%30.02 "Hg10 mi
8:53 AM86 °FBroken clouds.13 mph77%30.03 "Hg10 mi
7:53 AM85 °FPartly cloudy.13 mph77%30.03 "Hg10 mi
6:53 AM84 °FPartly cloudy.14 mph80%30.00 "Hg10 mi
5:53 AM84 °FPassing clouds.14 mph80%29.99 "Hg10 mi
4:53 AM84 °FPassing clouds.12 mph83%29.98 "Hg10 mi
3:53 AM84 °FPartly cloudy.13 mph80%29.99 "Hg10 mi
2:53 AM84 °FPartly cloudy.12 mph80%30.00 "Hg10 mi
1:53 AM83 °FPartly cloudy.9 mph85%30.01 "Hg10 mi
12:53 AM80 °FPassing clouds.3 mph87%30.03 "Hg10 mi
11:53 PM
Fri, Aug 28
80 °FPassing clouds.6 mph87%30.06 "Hg10 mi
10:53 PM80 °FOvercast.6 mph87%30.07 "Hg10 mi
9:53 PM83 °FPassing clouds.9 mph77%30.06 "Hg10 mi
8:53 PM83 °FPassing clouds.13 mph74%30.02 "Hg10 mi
7:53 PM82 °FPartly sunny.12 mph77%30.00 "Hg10 mi
Weather by CustomWeather, © 2015

See weather overviewHow to use our weather pages